Tracking 35334 objects as of 13-Sep-2026
HD Live streaming from Space Station
objects crossing your sky now

COSMOS 1644 DEB


COSMOS 1644 DEB is no longer on orbit


NORAD ID: 15658
Int'l Code: 1985-027N
Launch date: April 3, 1985
Source: Commonwealth of Independent States (former USSR) (CIS)
Launch site: TYURATAM MISSILE AND SPACE COMPLEX (TTMTR)
Decay date: 1985-06-16

Note: This is SATELLITE DEBRIS
Your satellite tracking list
Your tracking list is empty




NASA's NSSDC Master Catalog

Two Line Element Set (TLE):
1 15658U 85027  N 85167.03474843  .06794775 +21991-5 +89578-2 0  9998
2 15658 069.4812 156.5405 0009842 287.0843 073.5646 16.06464761009313
Source of the keplerian elements: AFSPC